Location: Kellogg
(38.0159°N, 90.0546°W)
Time: 14:55:51
(UTC+00:00)

Altair - Pass Details

Date: 19 September 2024
Orbit: 1501 x 1682 km, 47.2° (Epoch: 15 October)

Event Time Altitude Azimuth Distance (km) Brightness Sun altitude
Exits shadow 10:03:39 19° 289° (WNW) 3,252 8.7 -20.6°
Maximum altitude 10:11:01 51° 357° (N) 2,045 8.2 -19.2°
Drops below altitude 10° 10:20:51 10° 72° (ENE) 3,941 11.0 -17.3°
Sets 10:24:11 0° 77° (ENE) 4,919 12.0 -16.7°
